Regional Weather Roundup
Issued by NWS Kansas City/Pleasant Hill, MO

Home | Current Version | Previous Version | Graphics & Text | Print | Product List | Glossary Off
Versions: 1 2 3 4 5 6 7 8 9 10 11 12 13 14 15 16 17 18 19 20 21 22 23 24 25 26 27 28 29 30 31 32 33 34 35 36 37 38 39 40 41 42 43 44 45 46 47 48 49 50

000
ASUS43 KEAX 301710
RWREAX

WEATHER ROUNDUP FOR EASTERN KANSAS AND NORTHWEST MISSOURI
NATIONAL WEATHER SERVICE KANSAS CITY/PLEASANT HILL MO
1100 AM CST FRI JAN 30 2015

KSZ040-057-103>105-MOZ028-029-037-043-301800-
...KANSAS CITY METROPOLITAN AREA...

CITY           SKY/WX    TMP DP  RH WIND       PRES   REMARKS
K.C. INTL      CLOUDY    29  21  72 E3        30.56R
K.C. DOWNTOWN  MOSUNNY   32  21  64 VRB5      30.57R WCI  27
LEES SUMMIT    MOSUNNY   30  21  69 CALM      30.56R
OLATHE - IXD   SUNNY     31  22  69 CALM      30.56S
OLATHE - OJC   SUNNY     32  20  61 CALM      30.55R
LAWRENCE       SUNNY     31  22  69 CALM      30.57S

$$

MOZ001>008-011>017-020>025-030>033-038>040-044>046-053-054-301800-
...NORTHERN AND CENTRAL MISSOURI...

CITY           SKY/WX    TMP DP  RH WIND       PRES   REMARKS
ST. JOSEPH     MOSUNNY   29  20  69 CALM      30.57F
MOSBY          SUNNY     30  23  74 CALM      30.58R
WARRENSBURG    FAIR      32  23  69 CALM      30.56F
WHITEMAN AFB   MOSUNNY   31  22  69 NE3       30.55R
CLINTON        FAIR      32  27  80 E3        30.57R
SEDALIA        SUNNY     32  22  66 SE3       30.56R
WARSAW         NOT AVBL
MARSHALL       SUNNY     32  25  74 E8        30.57S WCI  25
CHILLICOTHE      N/A     29  21  72 S3        30.58S
MOBERLY        SUNNY     32  19  59 E3        30.56F
KIRKSVILLE     SUNNY     28  18  66 CALM      30.56S

$$

MOZ041-047>049-056>058-063>065-088>090-097-301800-
...EASTERN AND SOUTHERN MISSOURI...

CITY           SKY/WX    TMP DP  RH WIND       PRES   REMARKS
ST. LOUIS INTL MOSUNNY   34  17  50 N6        30.57R WCI  29
SPIRIT OF STL  SUNNY     33  18  53 VRB5      30.56S WCI  29
COLUMBIA       SUNNY     31  20  63 E6        30.54F WCI  25
JEFFERSON CITY SUNNY     32  20  61 SE6       30.56F WCI  26
MEXICO         SUNNY     32  25  74 E5        30.56S WCI  27
HANNIBAL       SUNNY     32  14  47 NE5       30.55F WCI  27
ROLLA          SUNNY     31  20  63 E3        30.50F
LEBANON        MOSUNNY   36  21  55 SE3       30.51F
OSAGE BEACH    SUNNY     32  21  64 NE7       30.54S WCI  26
SPRINGFIELD    PTSUNNY   35  23  61 VRB3      30.52R
BRANSON        PTSUNNY   39  25  56 E6        30.53R WCI  35
NEVADA         MOSUNNY   34  25  69 CALM      30.57S
JOPLIN         SUNNY     35  25  66 NE6       30.55S WCI  30
WEST PLAINS    MOSUNNY   35  20  54 VRB3      30.52S

$$

IAZ060-094-KSZ022-034>040-054-083-096-NEZ052-066-093-301800-
...KANSAS...SOUTHEAST NEBRASKA AND IOWA...

CITY           SKY/WX    TMP DP  RH WIND       PRES   REMARKS
TOPEKA         MOSUNNY   31  22  69 CALM      30.57S
MANHATTAN      PTSUNNY   30  27  88 CALM      30.55S
EMPORIA        PTSUNNY   32  27  81 S3        30.54F
CHANUTE        MOSUNNY   34  26  72 CALM      30.57R
WICHITA        CLOUDY    37  26  64 S8        30.53F WCI  31
OMAHA          MOSUNNY   27  18  69 S8        30.53F WCI  19
LINCOLN        PTSUNNY   29  24  82 S8        30.51F WCI  21
FALLS CITY     MOSUNNY   27  22  81 SW3       30.56R
LAMONI         SUNNY     24  18  77 SE3       30.54S
DES MOINES     MOSUNNY   24  13  62 SW3       30.56S

$$




USA.gov is the U.S. government's official web portal to all federal, state and local government web resources and services.